Location: Broletto
(44.6000°N, 10.5833°E)
Time: 07:20:30
(UTC+00:00)

Cosmos 2263 Rocket - Pass Details

Date: 18 April 2021
Orbit: 824 x 848 km, 71.0° (Epoch: 06 May)

Event Time Altitude Azimuth Distance (km) Brightness Sun altitude
Exits shadow 21:42:49 21° 54° (NE) 1,774 3.9 -30.3°
Drops below altitude 10° 21:44:53 10° 41° (NE) 2,433 4.8 -30.5°
Sets 21:47:29 0° 33° (NNE) 3,372 5.7 -30.7°
